Medicine Hat, Alberta

2:32 AM MST on January 20, 2018 (GMT -0700)
Medicine Hat

Weather History for CYXH - March, 2012

Change the Weather History Date:

Sunday, March 25, 2012

  Actual Average Record
Temperature  
Mean Temperature 40 °F -  
Max Temperature 50 °F 52 °F 73 °F (1999)
Min Temperature 30 °F 29 °F -31 °F (2015)
Degree Days  
Heating Degree Days 25    
Moisture  
Dew Point 31 °F    
Average Humidity 77    
Maximum Humidity 93    
Minimum Humidity 53    
Precipitation  
Precipitation 0.00 in 0.03 in - ()
Sea Level Pressure  
Sea Level Pressure 30.04 in    
Wind  
Wind Speed 4 mph ()    
Max Wind Speed 12 mph    
Max Gust Speed -    
Visibility 9.6 miles    
Events      
Averages and records for this station are not official NWS values.
T = Trace of Precipitation, MM = Missing Value Source: Averaged Metar Reports

Daily Weather History Graph

Daily Weather History Graph

Search for Another Location

Airport or City:

Trip Planner

Search our weather history database for the weather conditions in past years. The results will help you decide how hot, cold, wet, or windy it might be!

Date:

Astronomy

Mar. 25, 2012 Rise Set
Actual Time 7:13 AM MDT 7:44 PM MDT
Civil Twilight 6:41 AM MDT 8:17 PM MDT
Nautical Twilight 6:02 AM MDT 8:55 PM MDT
Astronomical Twilight 5:22 AM MDT 9:36 PM MDT
Moon 8:06 AM MDT (3/25) 11:28 PM MDT (3/25)
Length of Visible Light 13h 36m
Length of Day
12h 31m
Waxing Crescent, 9% of the Moon is Illuminated
Mar 25
Waxing Crescent
Mar 30
First Quarter
Apr 6
Full
Apr 13
Last Quarter
Apr 21
New

Hourly Weather History & Observations

Time (MDT) Temp. Windchill Dew Point Humidity Pressure Visibility Wind Dir Wind Speed Gust Speed Precip Events Conditions
12:21 AM 30.2 °F 24.3 °F 26.6 °F 86% 30.23 in 9.0 mi East 5.8 mph - N/A   Overcast
1:00 AM 30.2 °F 24.3 °F 28.4 °F 93% 30.22 in 9.0 mi ENE 5.8 mph - N/A   Overcast
2:00 AM 30.2 °F 23.4 °F 28.4 °F 93% 30.19 in 9.0 mi ESE 6.9 mph - N/A   Overcast
3:00 AM 30.2 °F 26.7 °F 28.4 °F 93% 30.17 in 9.0 mi ENE 3.5 mph - N/A   Overcast
4:00 AM 30.2 °F 24.3 °F 28.4 °F 93% 30.15 in 9.0 mi NE 5.8 mph - N/A   Overcast
5:00 AM 30.2 °F 24.3 °F 28.4 °F 93% 30.15 in 9.0 mi NNE 5.8 mph - N/A   Overcast
6:00 AM 32.0 °F 27.5 °F 28.4 °F 87% 30.14 in 9.0 mi NE 4.6 mph - N/A   Overcast
7:00 AM 32.0 °F 27.5 °F 28.4 °F 87% 30.14 in 30.0 mi ENE 4.6 mph - N/A   Overcast
8:00 AM 32.0 °F 27.5 °F 28.4 °F 87% 30.14 in 30.0 mi ENE 4.6 mph - N/A   Overcast
9:00 AM 33.8 °F 29.6 °F 30.2 °F 87% 30.12 in 30.0 mi East 4.6 mph - N/A   Overcast
10:00 AM 35.6 °F 32.8 °F 30.2 °F 81% 30.12 in 30.0 mi ENE 3.5 mph - N/A   Overcast
11:00 AM 39.2 °F - 32.0 °F 75% 30.10 in 30.0 mi Calm Calm - N/A   Overcast
12:00 PM 42.8 °F - 32.0 °F 66% 30.06 in 30.0 mi Calm Calm - N/A   Overcast
1:00 PM 42.8 °F 40.1 °F 32.0 °F 66% 30.04 in 30.0 mi WSW 4.6 mph - N/A   Overcast
2:00 PM 46.4 °F 43.5 °F 30.2 °F 53% 30.02 in 30.0 mi ESE 5.8 mph - N/A   Overcast
3:00 PM 48.2 °F - 32.0 °F 54% 29.96 in 30.0 mi ENE 9.2 mph - N/A   Overcast
4:00 PM 48.2 °F - 33.8 °F 58% 29.94 in 30.0 mi ESE 10.4 mph - N/A   Scattered Clouds
5:00 PM 50.0 °F - 35.6 °F 58% 29.91 in 30.0 mi ESE 11.5 mph - N/A   Partly Cloudy
6:00 PM 50.0 °F - 33.8 °F 54% 29.88 in 30.0 mi East 6.9 mph - N/A   Partly Cloudy
7:00 PM 48.2 °F - 33.8 °F 58% 29.88 in 30.0 mi WSW 3.5 mph - N/A   Partly Cloudy
8:00 PM 44.6 °F - 33.8 °F 66% 29.87 in 30.0 mi West 2.3 mph - N/A   Clear
9:00 PM 39.2 °F - 33.8 °F 81% 29.87 in 15.0 mi SSW 2.3 mph - N/A   Clear
10:00 PM 35.6 °F - 32.0 °F 87% 29.85 in 9.0 mi Calm Calm - N/A   Clear
11:00 PM 35.6 °F 32.8 °F 33.8 °F 93% 29.83 in 9.0 mi NNE 3.5 mph - N/A   Clear